Regional Weather Roundup
Issued by NWS Upton, NY

Current Version | Previous Version | Graphics & Text | Print | Product List | Glossary Off
Versions: 1 2 3 4 5 6 7 8 9 10 11 12 13 14 15 16 17 18 19 20 21 22 23 24 25 26 27 28 29 30 31 32 33 34 35 36 37 38 39 40 41 42 43 44 45 46 47 48 49 50

000
ASUS41 KOKX 040904
RWROKX

REGIONAL WEATHER ROUNDUP
NATIONAL WEATHER SERVICE NEW YORK NY
500 AM EDT WED MAY 04 2016

NOTE: "FAIR" INDICATES FEW OR NO CLOUDS BELOW 12,000 FEET WITH NO
SIGNIFICANT WEATHER AND/OR OBSTRUCTIONS TO VISIBILITY.

NYZ071-072-176-178-NJZ106-104-041000-
NEW YORK CITY METRO AREA


CITY           SKY/WX    TMP DP  RH WIND       PRES   REMARKS
CENTRAL PARK   CLOUDY    50  43  77 VRB3      29.82S
LAGUARDIA APRT LGT RAIN  51  48  89 E7        29.80S
KENNEDY INTL   CLOUDY    50  46  86 NE7       29.81F
NEWARK/LIBERTY CLOUDY    49  47  92 E5        29.80S
BRNX BOT. GARD   N/A     48  46  93 N1        29.83R
TETERBORO      DRIZZLE   51  45  79 NE3       29.80R
$$

NYZ177-179-078>081-041000-
LONG ISLAND NEW YORK

CITY           SKY/WX    TMP DP  RH WIND       PRES   REMARKS
FARMINGDALE    CLOUDY    49  46  90 NE6       29.80F
ISLIP          NOT AVBL
SHIRLEY        CLOUDY    48  45  89 CALM      29.80F
RIVERHEAD        N/A     48  46  93 CALM      29.81F
WESTHAMPTON    CLOUDY    44  44 100 NE5       29.82R
EAST HAMPTON   CLOUDY    47  43  86 NE6       29.81R
MONTAUK POINT    N/A     48  44  86 NE8       29.83S
$$

NYZ052-065-067-041000-
HUDSON VALLEY

CITY           SKY/WX    TMP DP  RH WIND       PRES   REMARKS
WHITE PLAINS   CLOUDY    48  46  93 E5        29.80S
NEWBURGH       CLOUDY    50  50 100 SE7       29.80S FOG
MONTGOMERY     CLOUDY    50  49  96 SE3       29.79S FOG
POUGHKEEPSIE   CLOUDY    52  49  89 SE3       29.80S FOG
ALBANY         CLOUDY    49  47  93 SE5       29.80S
$$

NJZ001-105-106-008-010-013-015-019>022-104-041000-
NEW JERSEY

CITY           SKY/WX    TMP DP  RH WIND       PRES   REMARKS
NEWARK/LIBERTY CLOUDY    49  47  92 E5        29.80S
TETERBORO      DRIZZLE   51  45  79 NE3       29.80R
CALDWELL       LGT RAIN  50  48  93 SE6       29.80S FOG
MORRISTOWN     LGT RAIN  50  48  93 CALM      29.80S
SOMERVILLE     LGT RAIN  50  48  93 CALM      29.79R
SUSSEX         LGT RAIN  51  48  89 CALM      29.79S
ANDOVER          N/A     50  48  93 CALM      29.79R
TRENTON        LGT RAIN  49  47  93 E3        29.79S
MILLVILLE      CLOUDY    49  48  97 NE9       29.76S
ATLANTIC CITY  CLOUDY    49  48  97 NE7       29.76F FOG
WRIGHTSTOWN    LGT RAIN  48  48 100 NE10      29.75F FOG
TOMS RIVER     CLOUDY    48  45  87 N8        29.79F
BELMAR         LGT RAIN  48  46  93 NE6       29.81R FOG
$$

PAZ047>061-062-071-041000-
EASTERN PENNSYLVANIA

CITY           SKY/WX    TMP DP  RH WIND       PRES   REMARKS
PHILADELPHIA   LGT RAIN  51  47  86 NE5       29.79S
ALLENTOWN      LGT RAIN  51  48  89 E5        29.78S FOG
SCRANTON       CLOUDY    50  49  96 CALM      29.75S FOG
$$

CTZ002-004>006-009-010-012-RIZ004-006-007-MAZ004-011-015-041000-
SOUTHERN NEW ENGLAND
 IN CT

CITY           SKY/WX    TMP DP  RH WIND       PRES   REMARKS
BRADLEY INTL   CLOUDY    48  44  86 N3        29.82S
HARTFORD       CLOUDY    51  42  71 CALM      29.83R
DANBURY        CLOUDY    48  45  89 E5        29.82S
WTRBRY/OXFORD    N/A     46  43  87 CALM      29.83S
BRIDGEPORT     CLOUDY    50  47  89 NE3       29.81F
MERIDEN        CLOUDY    50  42  74 CALM      29.83R
NEW HAVEN      CLOUDY    49  44  83 NE5       29.82R
CHESTER        FAIR      48  43  81 CALM      29.82S
GROTON         CLOUDY    48  46  93 NE8       29.82S
WILLIMANTIC    CLOUDY    49  41  74 NE5       29.83S

 IN RI

CITY           SKY/WX    TMP DP  RH WIND       PRES   REMARKS
PROVIDENCE     CLOUDY    46  41  82 NE8       29.85R
BLOCK ISLAND   CLOUDY    46  44  93 NE9       29.82F
WESTERLY       CLOUDY    47  42  83 NE6       29.82F

 IN MA

CITY           SKY/WX    TMP DP  RH WIND       PRES   REMARKS
BOSTON         CLOUDY    45  42  89 NE7       29.87R
WORCESTER      CLOUDY    42  40  92 NE5       29.83R
WESTFIELD      CLOUDY    47  44  90 N3        29.84R
PROVINCETOWN   CLOUDY    45  43  93 E7        29.87R
NANTUCKET      CLOUDY    47  43  86 NE8       29.84R
$$

ANZ330-335-338-340-345-350-353-355-041000-
COASTAL MARINE OBSERVATIONS


STATION/POSITION TIME  SKY/WX   TEMP    WIND        PRES    VSBY  WAVE
                                AIR SEA DIR/SP/G                  HT/PER
                 (UTC)          (F)     (DEG/KT/KT) (MB)    (MI)  (FT/S)
NY HARB ENTRANCE 0750            49 50   70/ 16/ 17 1008.3          4/ 6
20S FIRE ISLAND  0750            48 49   70/ 14/ 16 1008.4          4/ 6
GREAT SOUTH BAY  0800            49 55   60/  8/ 12   N/A
23 SSW MONTAUK P 0850            47 47   70/ 14/ 16 1008.2          4/ 6
15 E BARNEGAT LI 0822               50                N/A           5/ 6
HUDSON CANYON    0750            49 49              1007.1          5/ 7
KINGS POINT      0800            49 54              1009.0
EXECUTION ROCKS  NOT AVBL
CENTRAL LI SOUND 0815            49      60/  6/  8   N/A           1
EASTERN LI SOUND 0800            48 48   30/  6/  8   N/A
ROBBINS REEF     0800            51      90/  9/ 10 1008.4
$$


>>>>>>>>>>>>>>>>>>>>>>>>>>>> KEY <<<<<<<<<<<<<<<<<<<<<<<<<<<
>                                                          <
>     SKY/WX - SKY CONDITION/PRESENT WEATHER               <
>     TMP    - TEMPERATURE IN FAHRENHEIT                   <
>     DP     - DEWPOINT IN FAHRENHEIT                      <
>     RH     - RELATIVE HUMIDITY IN PERCENT                <
>     WIND   - DIRECTION AND SPEED IN MPH                  <
>     PRES   - MEAN SEA LEVEL PRESSURE IN INCHES OF HG     <
>     WCI    - WIND CHILL INDEX                            <
>     VSB    - VISIBILITY IN MILES                         <
>     HX     - HEAT INDEX                                  <
>     TC     - TEMPERATURE IN CELSIUS                      <
>     VRB    - VARIABLE WIND DIRECTION                     <
>                                                          <
>>>>>>>>>>>>>>>>>>>>>>>>>>>> KEY <<<<<<<<<<<<<<<<<<<<<<<<<<<





USA.gov is the U.S. government's official web portal to all federal, state and local government web resources and services.